User: anonymous   Login
Location: Unspecified
(0.0000°N, 0.0000°E)
Time: 18:23:16
(UTC+02:00)
Language:

N. Korean satellite - Orbit

View from above orbital plane
View from above orbital plane
View from above satellite
View from above satellite

Ground track
Ground track

The orbit data is extracted from the following two-line orbital elements,

1 39026U 12072A   18111.91859714 +.00001901 +00000-0 +73776-4 0  9993
2 39026 097.2127 124.1995 0039992 160.3485 199.9306 15.26564880297011
Epoch (UTC): 21 April 2018 22:02:46
Eccentricity: 0.0039992
inclination: 97.2127°
perigee height: 458 km
apogee height: 513 km
right ascension of ascending node: 124.1995°
argument of perigee: 160.3485°
revolutions per day: 15.26564880
mean anomaly at epoch: 199.9306°
orbit number at epoch: 29701

The dashed part of the orbit path shows where the satellite is in the earth's shadow,  

DLR